| time (UTC) | temp F | wind direction | speed MPH | gust MPH | rain 1hr in | rain 24hr in | rain mn in | humidity % | barometer mb |
| 20260504141310 | 63 | 231 | 2.0 | 8.0 | 0.00 | 0.00 | 0.00 | 37 | 1006.2 |
| 20260504140806 | 63 | 281 | 4.0 | 10.0 | 0.00 | 0.00 | 0.00 | 35 | 1006.2 |
| 20260504140302 | 63 | 230 | 2.0 | 7.0 | 0.00 | 0.00 | 0.00 | 36 | 1006.2 |
| 20260504130731 | 60 | 9 | 3.0 | 3.0 | 0.00 | 0.00 | 0.00 | 45 | 1006.9 |
| 20260504130226 | 59 | 161 | 1.0 | 3.0 | 0.00 | 0.00 | 0.00 | 42 | 1007.3 |
| 20260504120150 | 52 | 150 | 0.0 | 1.0 | 0.00 | 0.00 | 0.00 | 56 | 1007.3 |
| 20260504110618 | 48 | 175 | 0.0 | 2.0 | 0.00 | 0.00 | 0.00 | 59 | 1006.9 |
| 20260504110114 | 48 | 187 | 0.0 | 1.0 | 0.00 | 0.00 | 0.00 | 59 | 1007.3 |
| 20260504100539 | 46 | 243 | 2.0 | 3.0 | 0.00 | 0.00 | 0.00 | 62 | 1006.6 |
| 20260504081933 | 45 | 183 | 0.0 | 1.0 | 0.00 | 0.00 | 0.00 | 63 | 1006.2 |
| 20260504081430 | 45 | 197 | 0.0 | 2.0 | 0.00 | 0.00 | 0.00 | 63 | 1006.2 |
| 20260504080926 | 45 | 167 | 0.0 | 1.0 | 0.00 | 0.00 | 0.00 | 64 | 1006.2 |
| 20260504080423 | 45 | 168 | 1.0 | 2.0 | 0.00 | 0.00 | 0.00 | 64 | 1006.2 |
| 20260504070350 | 45 | 189 | 0.0 | 1.0 | 0.00 | 0.00 | 0.00 | 62 | 1006.2 |
| 20260504050738 | 38 | 186 | 0.0 | 0.0 | 0.00 | 0.00 | 0.00 | 79 | 1005.9 |
| 20260504050235 | 37 | 186 | 0.0 | 0.0 | 0.00 | 0.00 | 0.00 | 78 | 1005.9 |
| 20260504045732 | 37 | 186 | 0.0 | 0.0 | 0.00 | 0.00 | 0.00 | 78 | 1005.9 |
| 20260504045227 | 37 | 186 | 0.0 | 0.0 | 0.00 | 0.00 | 0.00 | 80 | 1005.9 |
| 20260504044725 | 37 | 186 | 0.0 | 0.0 | 0.00 | 0.00 | 0.00 | 82 | 1005.9 |
| 20260504044222 | 38 | 186 | 0.0 | 0.0 | 0.00 | 0.00 | 0.00 | 82 | 1005.9 |
| 20260504043720 | 38 | 186 | 0.0 | 0.0 | 0.00 | 0.00 | 0.00 | 81 | 1006.2 |
| 20260504043216 | 38 | 186 | 0.0 | 0.0 | 0.00 | 0.00 | 0.00 | 78 | 1005.9 |
| 20260504042714 | 38 | 186 | 0.0 | 0.0 | 0.00 | 0.00 | 0.00 | 79 | 1005.9 |
| 20260504042210 | 38 | 186 | 0.0 | 0.0 | 0.00 | 0.00 | 0.00 | 77 | 1005.9 |
| 20260504041706 | 39 | 186 | 0.0 | 0.0 | 0.00 | 0.00 | 0.00 | 76 | 1005.9 |
| 20260504041202 | 39 | 186 | 0.0 | 0.0 | 0.00 | 0.00 | 0.00 | 76 | 1005.9 |
| 20260504040659 | 39 | 186 | 0.0 | 0.0 | 0.00 | 0.00 | 0.00 | 73 | 1006.2 |
| 20260504040156 | 39 | 186 | 0.0 | 0.0 | 0.00 | 0.00 | 0.00 | 71 | 1005.9 |
| 20260504035652 | 39 | 186 | 0.0 | 0.0 | 0.00 | 0.00 | 0.00 | 71 | 1005.9 |
| 20260504035150 | 40 | 186 | 0.0 | 0.0 | 0.00 | 0.00 | 0.00 | 68 | 1005.9 |
| 20260504034647 | 40 | 186 | 0.0 | 0.0 | 0.00 | 0.00 | 0.00 | 68 | 1006.2 |
| 20260504034144 | 40 | 186 | 0.0 | 0.0 | 0.00 | 0.00 | 0.00 | 65 | 1005.9 |
| 20260504033642 | 41 | 186 | 0.0 | 0.0 | 0.00 | 0.00 | 0.00 | 68 | 1005.6 |
| 20260504033139 | 41 | 186 | 0.0 | 0.0 | 0.00 | 0.00 | 0.00 | 65 | 1005.9 |
| 20260504032635 | 41 | 186 | 0.0 | 0.0 | 0.00 | 0.00 | 0.00 | 66 | 1005.9 |
| 20260504032132 | 41 | 186 | 0.0 | 0.0 | 0.00 | 0.00 | 0.00 | 65 | 1005.9 |
| 20260504031630 | 41 | 186 | 0.0 | 0.0 | 0.00 | 0.00 | 0.00 | 64 | 1005.6 |
| 20260504031126 | 41 | 186 | 0.0 | 0.0 | 0.00 | 0.00 | 0.00 | 66 | 1005.6 |
| 20260504030623 | 42 | 186 | 0.0 | 0.0 | 0.00 | 0.00 | 0.00 | 65 | 1005.9 |
| 20260504030120 | 42 | 186 | 0.0 | 0.0 | 0.00 | 0.00 | 0.00 | 62 | 1005.6 |
| 20260504025616 | 42 | 186 | 0.0 | 0.0 | 0.00 | 0.00 | 0.00 | 62 | 1005.6 |
| 20260504025113 | 42 | 186 | 0.0 | 0.0 | 0.00 | 0.00 | 0.00 | 60 | 1005.9 |
| 20260504024611 | 42 | 186 | 0.0 | 0.0 | 0.00 | 0.00 | 0.00 | 61 | 1005.6 |
| 20260504024107 | 42 | 186 | 0.0 | 0.0 | 0.00 | 0.00 | 0.00 | 61 | 1005.9 |
| 20260504023603 | 43 | 186 | 0.0 | 0.0 | 0.00 | 0.00 | 0.00 | 63 | 1005.6 |
| 20260504023059 | 43 | 186 | 0.0 | 0.0 | 0.00 | 0.00 | 0.00 | 59 | 1005.9 |
| 20260504022556 | 43 | 186 | 0.0 | 0.0 | 0.00 | 0.00 | 0.00 | 59 | 1005.9 |
| 20260504022052 | 43 | 186 | 0.0 | 0.0 | 0.00 | 0.00 | 0.00 | 58 | 1005.9 |
| 20260504021550 | 43 | 186 | 0.0 | 0.0 | 0.00 | 0.00 | 0.00 | 58 | 1005.9 |
| 20260504021046 | 43 | 186 | 0.0 | 0.0 | 0.00 | 0.00 | 0.00 | 56 | 1005.9 |
| 20260504020543 | 44 | 186 | 0.0 | 0.0 | 0.00 | 0.00 | 0.00 | 59 | 1005.6 |
| 20260504020040 | 44 | 186 | 0.0 | 0.0 | 0.00 | 0.00 | 0.00 | 58 | 1005.9 |
| 20260504015537 | 44 | 186 | 0.0 | 0.0 | 0.00 | 0.00 | 0.00 | 60 | 1005.6 |
| 20260504015032 | 44 | 186 | 0.0 | 0.0 | 0.00 | 0.00 | 0.00 | 56 | 1005.9 |
| 20260504014529 | 44 | 186 | 0.0 | 0.0 | 0.00 | 0.00 | 0.00 | 55 | 1005.9 |
| 20260504014026 | 45 | 186 | 0.0 | 0.0 | 0.00 | 0.00 | 0.00 | 56 | 1005.6 |
| 20260504013524 | 45 | 186 | 0.0 | 0.0 | 0.00 | 0.00 | 0.00 | 56 | 1005.6 |
| 20260504013020 | 45 | 186 | 0.0 | 0.0 | 0.00 | 0.00 | 0.00 | 51 | 1005.6 |
| 20260504012518 | 46 | 186 | 0.0 | 0.0 | 0.00 | 0.00 | 0.00 | 51 | 1005.6 |
| 20260504012016 | 46 | 186 | 0.0 | 0.0 | 0.00 | 0.00 | 0.00 | 50 | 1005.6 |
| 20260504011512 | 46 | 186 | 0.0 | 0.0 | 0.00 | 0.00 | 0.00 | 51 | 1005.6 |
| 20260504011008 | 46 | 186 | 0.0 | 0.0 | 0.00 | 0.00 | 0.00 | 48 | 1005.6 |
| 20260504010504 | 47 | 186 | 0.0 | 0.0 | 0.00 | 0.00 | 0.00 | 49 | 1005.2 |
| 20260504010000 | 48 | 186 | 0.0 | 0.0 | 0.00 | 0.00 | 0.00 | 47 | 1005.2 |
| 20260504005457 | 48 | 186 | 0.0 | 0.0 | 0.00 | 0.00 | 0.00 | 46 | 1004.9 |
| 20260504004954 | 48 | 186 | 0.0 | 0.0 | 0.00 | 0.00 | 0.00 | 47 | 1004.9 |
| 20260504004452 | 48 | 186 | 0.0 | 0.0 | 0.00 | 0.00 | 0.00 | 45 | 1005.2 |
| 20260504003949 | 49 | 186 | 0.0 | 0.0 | 0.00 | 0.00 | 0.00 | 45 | 1004.9 |
| 20260504003445 | 49 | 186 | 0.0 | 0.0 | 0.00 | 0.00 | 0.00 | 44 | 1004.9 |
| 20260504002942 | 50 | 186 | 0.0 | 0.0 | 0.00 | 0.00 | 0.00 | 43 | 1004.5 |
| 20260504002439 | 50 | 186 | 0.0 | 0.0 | 0.00 | 0.00 | 0.00 | 43 | 1004.9 |
| 20260504001936 | 50 | 186 | 0.0 | 0.0 | 0.00 | 0.00 | 0.00 | 44 | 1004.5 |
| 20260504001433 | 51 | 186 | 0.0 | 0.0 | 0.00 | 0.00 | 0.00 | 42 | 1004.5 |
| 20260504000930 | 51 | 186 | 0.0 | 0.0 | 0.00 | 0.00 | 0.00 | 43 | 1004.5 |
| 20260504000427 | 52 | 187 | 0.0 | 1.0 | 0.00 | 0.00 | 0.00 | 40 | 1004.5 |
| 20260503235924 | 51 | 175 | 0.0 | 0.0 | 0.00 | 0.00 | 0.00 | 40 | 1004.5 |
| 20260503235422 | 52 | 175 | 0.0 | 0.0 | 0.00 | 0.00 | 0.00 | 39 | 1004.2 |
| 20260503234919 | 52 | 176 | 0.0 | 0.0 | 0.00 | 0.00 | 0.00 | 37 | 1004.5 |
| 20260503234417 | 52 | 170 | 0.0 | 0.0 | 0.00 | 0.00 | 0.00 | 40 | 1003.9 |
| 20260503233915 | 53 | 183 | 0.0 | 1.0 | 0.00 | 0.00 | 0.00 | 38 | 1004.2 |
| 20260503233411 | 52 | 202 | 0.0 | 1.0 | 0.00 | 0.00 | 0.00 | 37 | 1003.9 |
| 20260503232907 | 53 | 151 | 0.0 | 0.0 | 0.00 | 0.00 | 0.00 | 40 | 1004.2 |
| 20260503232405 | 53 | 105 | 1.0 | 2.0 | 0.00 | 0.00 | 0.00 | 38 | 1003.9 |
| 20260503231902 | 53 | 167 | 0.0 | 1.0 | 0.00 | 0.00 | 0.00 | 38 | 1003.9 |
| 20260503231359 | 53 | 92 | 0.0 | 1.0 | 0.00 | 0.00 | 0.00 | 39 | 1003.9 |
| 20260503230855 | 53 | 197 | 0.0 | 3.0 | 0.00 | 0.00 | 0.00 | 40 | 1004.2 |
| 20260503230352 | 53 | 123 | 2.0 | 2.0 | 0.00 | 0.00 | 0.00 | 37 | 1003.9 |
| 20260503225850 | 53 | 218 | 1.0 | 2.0 | 0.00 | 0.00 | 0.00 | 38 | 1003.9 |
| 20260503225346 | 54 | 214 | 2.0 | 2.0 | 0.00 | 0.00 | 0.00 | 38 | 1003.9 |
| 20260503224842 | 54 | 251 | 2.0 | 3.0 | 0.00 | 0.00 | 0.00 | 35 | 1003.9 |
| 20260503224339 | 54 | 70 | 1.0 | 4.0 | 0.00 | 0.00 | 0.00 | 34 | 1003.5 |
| 20260503223837 | 54 | 98 | 1.0 | 7.0 | 0.00 | 0.00 | 0.00 | 33 | 1003.5 |
| 20260503223335 | 55 | 284 | 4.0 | 8.0 | 0.00 | 0.00 | 0.00 | 34 | 1003.5 |
| 20260503222830 | 55 | 120 | 1.0 | 2.0 | 0.00 | 0.00 | 0.00 | 39 | 1003.9 |
| 20260503222329 | 55 | 276 | 1.0 | 3.0 | 0.00 | 0.00 | 0.00 | 35 | 1003.5 |
| 20260503221826 | 56 | 209 | 0.0 | 1.0 | 0.00 | 0.00 | 0.00 | 36 | 1003.9 |
| 20260503221325 | 56 | 236 | 2.0 | 4.0 | 0.00 | 0.00 | 0.00 | 34 | 1003.5 |
| 20260503220820 | 56 | 314 | 1.0 | 4.0 | 0.00 | 0.00 | 0.00 | 35 | 1003.9 |
| 20260503220318 | 56 | 212 | 1.0 | 3.0 | 0.00 | 0.00 | 0.00 | 36 | 1003.5 |
| 20260503215814 | 56 | 217 | 2.0 | 7.0 | 0.00 | 0.00 | 0.00 | 35 | 1003.5 |
| 20260503215312 | 56 | 244 | 2.0 | 9.0 | 0.00 | 0.00 | 0.00 | 37 | 1003.5 |
| 20260503214810 | 56 | 26 | 4.0 | 9.0 | 0.00 | 0.00 | 0.00 | 33 | 1003.2 |
| 20260503214306 | 55 | 25 | 0.0 | 6.0 | 0.00 | 0.00 | 0.00 | 34 | 1003.5 |
| 20260503213804 | 56 | 4 | 2.0 | 4.0 | 0.00 | 0.00 | 0.00 | 35 | 1003.9 |
| 20260503213301 | 56 | 322 | 2.0 | 7.0 | 0.00 | 0.00 | 0.00 | 35 | 1003.5 |
| 20260503212758 | 56 | 187 | 3.0 | 4.0 | 0.00 | 0.00 | 0.00 | 35 | 1003.5 |
| 20260503212256 | 55 | 351 | 1.0 | 6.0 | 0.00 | 0.00 | 0.00 | 34 | 1003.5 |
| 20260503211753 | 55 | 342 | 3.0 | 8.0 | 0.00 | 0.00 | 0.00 | 35 | 1003.5 |
| 20260503211249 | 55 | 191 | 2.0 | 11.0 | 0.00 | 0.00 | 0.00 | 35 | 1003.2 |
| 20260503210744 | 55 | 319 | 3.0 | 7.0 | 0.00 | 0.00 | 0.00 | 38 | 1003.5 |
| 20260503210242 | 55 | 264 | 4.0 | 7.0 | 0.00 | 0.00 | 0.00 | 37 | 1003.5 |
| 20260503205742 | 55 | 152 | 2.0 | 8.0 | 0.00 | 0.00 | 0.00 | 36 | 1003.5 |
| 20260503205239 | 55 | 143 | 2.0 | 4.0 | 0.00 | 0.00 | 0.00 | 37 | 1003.2 |
| 20260503204735 | 56 | 9 | 4.0 | 9.0 | 0.00 | 0.00 | 0.00 | 37 | 1003.2 |
| 20260503204233 | 56 | 268 | 3.0 | 4.0 | 0.00 | 0.00 | 0.00 | 37 | 1003.5 |
| 20260503203731 | 55 | 221 | 3.0 | 14.0 | 0.00 | 0.00 | 0.00 | 37 | 1003.5 |
| 20260503203228 | 55 | 262 | 6.0 | 13.0 | 0.00 | 0.00 | 0.00 | 38 | 1003.5 |
| 20260503202725 | 55 | 13 | 5.0 | 11.0 | 0.00 | 0.00 | 0.00 | 37 | 1003.5 |
| 20260503202223 | 56 | 306 | 2.0 | 7.0 | 0.00 | 0.00 | 0.00 | 37 | 1003.5 |
| 20260503201720 | 56 | 77 | 2.0 | 4.0 | 0.00 | 0.00 | 0.00 | 42 | 1003.5 |
| 20260503201218 | 55 | 272 | 4.0 | 13.0 | 0.00 | 0.00 | 0.00 | 37 | 1003.5 |
| 20260503200714 | 56 | 173 | 3.0 | 6.0 | 0.00 | 0.00 | 0.00 | 38 | 1003.5 |
| 20260503200211 | 55 | 246 | 3.0 | 8.0 | 0.00 | 0.00 | 0.00 | 40 | 1003.5 |
| 20260503195707 | 54 | 342 | 3.0 | 4.0 | 0.00 | 0.00 | 0.00 | 41 | 1003.9 |
| 20260503195204 | 55 | 85 | 3.0 | 4.0 | 0.00 | 0.00 | 0.00 | 38 | 1003.5 |
| 20260503194701 | 54 | 31 | 4.0 | 8.0 | 0.00 | 0.00 | 0.00 | 37 | 1003.5 |
| 20260503194156 | 54 | 172 | 7.0 | 13.0 | 0.00 | 0.00 | 0.00 | 38 | 1003.5 |
| 20260503193654 | 53 | 353 | 11.0 | 15.0 | 0.00 | 0.00 | 0.00 | 38 | 1003.9 |
| 20260503193149 | 54 | 349 | 4.0 | 16.0 | 0.00 | 0.00 | 0.00 | 40 | 1003.9 |
| 20260503192645 | 55 | 324 | 4.0 | 13.0 | 0.00 | 0.00 | 0.00 | 43 | 1003.9 |
| 20260503192141 | 54 | 356 | 4.0 | 10.0 | 0.00 | 0.00 | 0.00 | 41 | 1003.9 |
| 20260503191638 | 54 | 229 | 3.0 | 9.0 | 0.00 | 0.00 | 0.00 | 40 | 1003.9 |
| 20260503191135 | 53 | 262 | 2.0 | 7.0 | 0.00 | 0.00 | 0.00 | 42 | 1003.9 |
| 20260503190632 | 54 | 228 | 3.0 | 13.0 | 0.00 | 0.00 | 0.00 | 41 | 1004.2 |
| 20260503190129 | 54 | 36 | 5.0 | 10.0 | 0.00 | 0.00 | 0.00 | 43 | 1003.9 |
| 20260503185625 | 55 | 83 | 3.0 | 11.0 | 0.00 | 0.00 | 0.00 | 39 | 1003.9 |
| 20260503185120 | 55 | 288 | 3.0 | 8.0 | 0.00 | 0.00 | 0.00 | 39 | 1003.9 |
| 20260503184615 | 53 | 345 | 1.0 | 6.0 | 0.00 | 0.00 | 0.00 | 42 | 1003.9 |
| 20260503184112 | 53 | 53 | 2.0 | 6.0 | 0.00 | 0.00 | 0.00 | 42 | 1003.9 |
| 20260503183609 | 53 | 355 | 9.0 | 15.0 | 0.00 | 0.00 | 0.00 | 39 | 1003.9 |
| 20260503183106 | 53 | 249 | 2.0 | 3.0 | 0.00 | 0.00 | 0.00 | 38 | 1003.9 |
| 20260503182605 | 52 | 79 | 2.0 | 8.0 | 0.00 | 0.00 | 0.00 | 42 | 1003.9 |
| 20260503182102 | 52 | 90 | 2.0 | 7.0 | 0.00 | 0.00 | 0.00 | 40 | 1003.5 |
| 20260503181559 | 54 | 303 | 2.0 | 7.0 | 0.00 | 0.00 | 0.00 | 40 | 1003.9 |
| 20260503181055 | 53 | 321 | 5.0 | 9.0 | 0.00 | 0.00 | 0.00 | 41 | 1003.9 |
| 20260503180553 | 53 | 242 | 3.0 | 6.0 | 0.00 | 0.00 | 0.00 | 39 | 1003.9 |
| 20260503180050 | 53 | 284 | 2.0 | 6.0 | 0.00 | 0.00 | 0.00 | 40 | 1003.9 |
| 20260503175547 | 52 | 264 | 1.0 | 7.0 | 0.00 | 0.00 | 0.00 | 40 | 1003.9 |
| 20260503175045 | 53 | 296 | 3.0 | 10.0 | 0.00 | 0.00 | 0.00 | 40 | 1003.9 |
| 20260503174542 | 52 | 232 | 6.0 | 16.0 | 0.00 | 0.00 | 0.00 | 38 | 1003.9 |
| 20260503174038 | 52 | 332 | 4.0 | 8.0 | 0.00 | 0.00 | 0.00 | 41 | 1003.9 |
| 20260503173533 | 52 | 224 | 6.0 | 11.0 | 0.00 | 0.00 | 0.00 | 38 | 1003.5 |
| 20260503173029 | 52 | 64 | 6.0 | 8.0 | 0.00 | 0.00 | 0.00 | 41 | 1003.5 |
| 20260503172527 | 54 | 353 | 3.0 | 9.0 | 0.00 | 0.00 | 0.00 | 37 | 1003.9 |
| 20260503172024 | 53 | 318 | 7.0 | 11.0 | 0.00 | 0.00 | 0.00 | 37 | 1003.9 |
| 20260503171521 | 52 | 313 | 6.0 | 9.0 | 0.00 | 0.00 | 0.00 | 38 | 1003.9 |
| 20260503171018 | 52 | 98 | 6.0 | 13.0 | 0.00 | 0.00 | 0.00 | 40 | 1003.9 |
| 20260503170514 | 52 | 319 | 5.0 | 10.0 | 0.00 | 0.00 | 0.00 | 40 | 1003.9 |
| 20260503150907 | 49 | 299 | 5.0 | 6.0 | 0.00 | 0.00 | 0.00 | 56 | 1004.5 |
| 20260503150403 | 48 | 62 | 1.0 | 10.0 | 0.00 | 0.00 | 0.00 | 55 | 1004.5 |